[[{"header":{"parameterUnit":"m.s-1","parameterCategory":1,"la1":30.2991,"la2":30.254,"lo1":-89.0895,"lo2":-89.0444,"dy":0.0017,"dx":0.0017,"nx":28,"ny":28,"refTime":"2025-07-10T09:00:00:Z","depth":0,"parameterNumber":2,"parameterNumberName":"U-component_of_WINDS"},"data":[0,0,0,0,0,0,0,0,0,0,0,0,0,0,0,0,0,0,0,0,0,0,0,0,0,0,0,0,0,0,0,0,0,0,0,0,0,0,0,0,0,0,0,0,0,0,0,0,0,0,0,0,0,0,0,0,0,0,2.6804,2.6805,0,2.69,2.6901,2.6902,2.6868,2.6866,2.6864,2.6862,2.6959,2.6964,2.6968,0,0,0,0,0,0,0,0,0,0,0,0,0,2.6588,2.6592,2.6804,2.6805,2.6806,2.69,2.6901,2.6902,2.6868,2.6866,2.6863,2.6861,2.6958,2.6963,2.6969,0,0,0,0,0,0,0,0,0,0,0,0,0,2.6683,2.6594,2.6803,2.68,2.6801,2.6899,2.6901,2.6903,2.6869,2.6866,2.6863,2.686,2.6956,2.6963,2.697,2.7076,0,0,2.6991,2.6994,0,0,0,0,0,0,0,0,2.6678,2.6691,2.68,2.6801,2.6802,2.6869,2.6861,2.6961,2.687,2.6843,2.6862,2.6858,2.6932,2.694,2.6966,2.7081,2.7085,2.6991,2.6995,2.6998,2.7,0,0,0,0,0,0,0,2.6671,2.6686,2.6842,2.6801,2.6803,2.6793,2.6803,2.688,2.6904,2.6845,2.6843,2.6855,2.6932,2.6959,2.6968,2.7087,2.6991,2.6997,2.7001,2.7004,2.7291,2.7294,0,0,0,0,0,0,2.6664,2.6681,2.6839,2.6845,2.6731,2.68,2.6811,2.685,2.6903,2.6908,2.6858,2.6853,2.6949,2.696,2.6971,2.7097,2.6998,2.7005,2.7009,2.7288,2.7292,2.7296,0,0,0,0,0,0,2.666,2.6679,2.6835,2.6762,2.6781,2.6807,2.6852,2.6854,2.6881,2.6913,2.6917,2.6881,2.6947,2.6961,2.705,2.71,2.7008,2.7014,2.7284,2.7289,2.7294,2.7351,0,0,0,0,0,0,2.6654,2.6677,2.6719,2.6764,2.6786,2.6913,2.6855,2.6858,2.6893,2.6888,2.6936,2.6941,2.6945,2.704,2.7057,2.7108,2.702,2.7279,2.7286,2.7292,2.7345,2.7358,2.7369,0,0,0,0,0,2.6646,2.6732,2.6721,2.674,2.6838,2.6916,2.6928,2.6932,2.6898,2.6939,2.6959,2.6939,2.7092,2.7049,2.7068,2.7122,2.7276,2.7284,2.7292,2.734,2.7355,2.7369,0,0,0,0,0,0,2.6692,2.6737,2.6726,2.6829,2.6869,2.691,2.6962,2.6949,2.7,2.6993,2.6995,2.7006,2.7097,2.7119,2.707,2.7226,2.7179,2.7191,2.7209,2.7224,2.7236,2.7228,2.7025,0,0,0,0,0,2.6714,2.6774,2.681,2.6897,2.6918,2.6937,2.6971,2.697,2.7012,2.7028,2.7055,2.7095,2.7152,2.7189,2.7244,2.7349,2.7357,2.7395,2.7407,2.7416,2.7426,2.748,2.7497,2.7322,2.7321,2.7321,0,0,2.676,2.6793,2.683,2.6907,2.6938,2.6999,2.6951,2.7018,2.7063,2.7038,2.7123,2.7144,2.7189,2.7285,2.7329,2.7306,2.7476,2.7426,2.7434,2.7438,2.749,2.7507,2.7521,2.7327,2.7326,2.7325,0,0,2.6875,2.6907,2.6981,2.7013,2.706,2.7071,2.7089,2.7133,2.7145,2.723,2.7212,2.7265,2.7364,2.7396,2.7425,2.755,2.7533,2.7568,2.763,2.7683,2.7696,2.7709,2.7751,2.7766,2.7578,2.7578,2.7578,0,2.6926,2.7018,2.7021,2.7089,2.7122,2.7103,2.7177,2.7208,2.727,2.7293,2.7267,2.7388,2.7418,2.752,2.755,2.7576,2.7594,2.7562,2.7694,2.7707,2.7718,2.7758,2.7774,2.7582,2.7582,2.7581,2.7581,0,2.7077,2.7141,2.7195,2.7255,2.7295,2.7366,2.7379,2.7419,2.7414,2.7428,2.7514,2.7548,2.7608,2.7633,2.763,2.7734,2.7718,2.7693,2.7645,2.7738,2.7776,2.7792,2.7587,2.7586,2.7585,2.7584,0,0,2.7224,2.7283,2.7303,2.7329,2.7379,2.7428,2.7497,2.7555,2.7588,2.7632,2.7688,2.7772,2.7748,2.7781,2.7782,2.7829,2.7922,2.7798,2.7799,2.7818,2.8036,2.8053,2.8071,2.7912,2.7915,2.7917,2.8032,0,2.734,2.7462,2.7466,2.7577,2.7634,2.7616,2.7676,2.7712,2.7727,2.7777,2.7793,2.7851,2.7818,2.7837,2.7883,2.7901,2.7966,2.7893,2.7963,2.7966,2.795,2.8091,2.811,2.8216,2.8047,2.8049,2.8051,0,2.7493,2.754,2.7657,2.7696,2.772,2.7774,2.7826,2.7875,2.7915,2.7923,2.7959,2.7952,2.8021,2.7972,2.8067,2.8017,2.8046,2.8059,2.8063,2.8069,2.8013,2.8098,2.8251,2.8266,2.8075,2.8073,2.8071,0,2.7585,2.7678,2.7759,2.7782,2.783,2.7868,2.789,2.7927,2.7961,2.8007,2.8029,2.8083,2.8111,2.8153,2.816,2.8123,2.8254,2.8205,2.826,2.826,2.8287,2.8285,2.8444,2.8309,2.8309,2.8309,2.8308,0,2.7714,2.7785,2.78,2.785,2.7928,2.7932,2.8009,2.8028,2.8061,2.8113,2.8101,2.815,2.8157,2.8208,2.8214,2.829,2.8304,2.831,2.8311,2.831,2.8309,2.8328,2.832,2.8313,2.8312,2.8311,2.831,0,2.7829,2.7842,2.7929,2.7967,2.7978,2.8034,2.8067,2.8114,2.8127,2.8193,2.8208,2.8229,2.8287,2.8299,2.8369,2.8372,2.8462,2.8456,2.8448,2.8447,2.85,2.8494,2.8675,2.8698,2.855,2.8552,2.8553,0,2.7909,2.7963,2.8007,2.8041,2.8064,2.8119,2.8153,2.8159,2.8195,2.8244,2.8284,2.8341,2.8387,2.8481,2.8502,2.8554,2.8548,2.8608,2.8556,2.8553,2.8546,2.8542,2.8547,2.8618,2.8619,2.862,2.8622,0,2.8049,2.8053,2.8103,2.8154,2.8195,2.8237,2.8276,2.8304,2.8314,2.8355,2.8414,2.845,2.852,2.8576,2.8628,2.865,2.8637,2.8638,2.8653,2.8652,2.8644,2.8647,2.8473,2.8633,2.8632,2.8631,2.8631,2.863,2.8148,2.8194,2.8231,2.8287,2.8316,2.8353,2.8398,2.8416,2.8466,2.8523,2.8523,2.8588,2.8625,2.8693,2.8718,2.8768,2.8749,2.8771,2.8777,2.8781,2.8785,2.8638,2.8778,2.8777,2.8777,2.8777,2.8777,0,2.8285,2.8308,2.8359,2.8413,2.8456,2.8441,2.8483,2.8519,2.8576,2.8612,2.8657,2.8724,2.8778,2.8803,2.8856,2.8891,2.8886,2.8904,2.89,2.8905,2.88,2.8781,2.8907,2.8907,2.8907,2.8907,2.8907,2.8907,2.8361,2.8438,2.8446,2.8536,2.8558,2.8621,2.8646,2.8679,2.8707,2.8782,2.8827,2.8843,2.8873,2.8928,2.8977,2.8982,2.9002,2.9022,2.9025,2.8926,2.8913,2.89,2.8882,2.9027,2.9027,2.9125,2.9126,2.9127]},{"header":{"parameterUnit":"m.s-1","parameterCategory":1,"la1":30.2991,"la2":30.254,"lo1":-89.0895,"lo2":-89.0444,"dy":0.0017,"dx":0.0017,"nx":28,"ny":28,"refTime":"2025-07-10T09:00:00:Z","depth":0,"parameterNumber":3,"parameterNumberName":"V-component_of_WINDS"},"data":[0,0,0,0,0,0,0,0,0,0,0,0,0,0,0,0,0,0,0,0,0,0,0,0,0,0,0,0,0,0,0,0,0,0,0,0,0,0,0,0,0,0,0,0,0,0,0,0,0,0,0,0,0,0,0,0,0,0,1.8009,1.8009,0,1.8041,1.8042,1.8042,1.7974,1.7972,1.7969,1.7967,1.8004,1.8007,1.801,0,0,0,0,0,0,0,0,0,0,0,0,0,1.7888,1.7891,1.8009,1.8009,1.8009,1.8041,1.8042,1.8042,1.7974,1.7972,1.7969,1.7966,1.8003,1.8006,1.801,0,0,0,0,0,0,0,0,0,0,0,0,0,1.7933,1.7892,1.8008,1.7979,1.7977,1.8041,1.8042,1.8042,1.7975,1.7971,1.7968,1.7965,1.8002,1.8006,1.8011,1.8106,0,0,1.8025,1.8027,0,0,0,0,0,0,0,0,1.7931,1.7938,1.7983,1.7981,1.7979,1.8,1.8013,1.8064,1.7976,1.7976,1.7967,1.7963,1.8005,1.801,1.8023,1.8107,1.8109,1.8025,1.8028,1.803,1.8031,0,0,0,0,0,0,0,1.7928,1.7936,1.8022,1.7984,1.7981,1.7965,1.7968,1.8022,1.8009,1.7976,1.7971,1.7975,1.8004,1.8019,1.8023,1.8109,1.8025,1.8029,1.8032,1.8034,1.8272,1.8275,0,0,0,0,0,0,1.7928,1.7934,1.8021,1.8023,1.7946,1.797,1.7973,1.7997,1.8008,1.8007,1.7978,1.7972,1.8013,1.8018,1.8025,1.8136,1.803,1.8034,1.8037,1.8268,1.8272,1.8276,0,0,0,0,0,0,1.7926,1.7936,1.8019,1.7977,1.7986,1.7975,1.8003,1.7999,1.8014,1.801,1.8008,1.7996,1.801,1.8018,1.8085,1.8136,1.8036,1.804,1.8264,1.8269,1.8274,1.8359,0,0,0,0,0,0,1.7922,1.7936,1.7972,1.7978,1.7989,1.808,1.8006,1.8002,1.8022,1.8014,1.8026,1.8025,1.8008,1.8079,1.809,1.814,1.8044,1.8259,1.8266,1.8273,1.8352,1.8367,1.838,0,0,0,0,0,1.7918,1.7996,1.7974,1.7985,1.8033,1.8083,1.8089,1.8067,1.8026,1.8062,1.8059,1.8025,1.8128,1.8086,1.8098,1.8151,1.8256,1.8264,1.8272,1.8346,1.8364,1.8379,0,0,0,0,0,0,1.7997,1.7996,1.7972,1.8053,1.8068,1.8071,1.8116,1.8087,1.8115,1.8107,1.8079,1.8083,1.8155,1.816,1.8113,1.8242,1.8185,1.8196,1.8237,1.8255,1.8268,1.8266,1.8048,0,0,0,0,0,1.8024,1.8064,1.806,1.8132,1.8141,1.8127,1.8148,1.813,1.8145,1.8151,1.8153,1.817,1.8206,1.823,1.8263,1.8352,1.8353,1.8394,1.8408,1.8419,1.8429,1.8475,1.8493,1.8303,1.8303,1.8302,0,0,1.808,1.8084,1.8111,1.8148,1.8158,1.82,1.8133,1.8181,1.8212,1.8159,1.8222,1.8224,1.824,1.8318,1.8353,1.8324,1.8481,1.8429,1.8438,1.8442,1.8485,1.8503,1.8519,1.8308,1.8307,1.8306,0,0,1.8203,1.821,1.827,1.8281,1.8295,1.8285,1.83,1.8306,1.8305,1.8368,1.8328,1.8364,1.8428,1.844,1.8455,1.8581,1.855,1.8592,1.8665,1.871,1.8725,1.8738,1.8783,1.8799,1.8602,1.8602,1.8602,0,1.8272,1.8332,1.8305,1.8355,1.8372,1.8324,1.8385,1.8396,1.8422,1.8435,1.8402,1.8479,1.8486,1.8566,1.8596,1.861,1.8626,1.8591,1.8725,1.8738,1.875,1.8792,1.8809,1.8607,1.8607,1.8606,1.8606,0,1.8415,1.8458,1.8505,1.8528,1.8551,1.8606,1.8587,1.8613,1.8593,1.8586,1.865,1.8657,1.869,1.8707,1.8688,1.8784,1.8766,1.873,1.8672,1.8774,1.8813,1.8829,1.8615,1.8613,1.8611,1.861,0,0,1.8591,1.8597,1.8615,1.8624,1.8636,1.8668,1.8721,1.8752,1.8774,1.8793,1.8836,1.8889,1.8855,1.8872,1.8853,1.8893,1.8991,1.8851,1.8851,1.8877,1.9096,1.9124,1.9143,1.897,1.8973,1.8975,1.9095,0,1.8713,1.8802,1.8778,1.8867,1.8906,1.886,1.8905,1.8917,1.8912,1.8944,1.8938,1.8976,1.8929,1.8938,1.8975,1.8971,1.9035,1.8962,1.901,1.9012,1.9008,1.9163,1.9193,1.9306,1.911,1.9113,1.9114,0,1.8868,1.889,1.8983,1.8986,1.9001,1.9042,1.9068,1.9099,1.9111,1.9104,1.9122,1.9095,1.9147,1.9087,1.9158,1.9109,1.9127,1.9128,1.9131,1.9136,1.907,1.9172,1.9341,1.9359,1.9138,1.9136,1.9135,0,1.8986,1.904,1.9101,1.9111,1.9116,1.9146,1.915,1.9159,1.9178,1.9201,1.9213,1.9241,1.9257,1.928,1.9261,1.922,1.9335,1.9274,1.9331,1.9331,1.9358,1.9357,1.9533,1.9369,1.9369,1.9368,1.9368,0,1.9125,1.9184,1.9155,1.9193,1.9257,1.9228,1.9292,1.9291,1.9299,1.9336,1.9297,1.9333,1.9306,1.9339,1.9325,1.9385,1.9393,1.9389,1.9384,1.9393,1.9393,1.9405,1.9397,1.9373,1.9372,1.9371,1.937,0,1.927,1.9252,1.9317,1.9315,1.9316,1.9363,1.9362,1.9398,1.9388,1.9436,1.9445,1.9432,1.9469,1.9452,1.9491,1.9481,1.9559,1.9544,1.9554,1.9551,1.9608,1.9603,1.9799,1.9823,1.9643,1.9645,1.9646,0,1.936,1.9403,1.9406,1.9427,1.9433,1.9468,1.9487,1.946,1.9482,1.9498,1.9531,1.9564,1.959,1.9651,1.9645,1.9675,1.966,1.9726,1.9665,1.9671,1.9661,1.9659,1.9663,1.9739,1.9742,1.9743,1.9745,0,1.9521,1.951,1.9538,1.9563,1.9586,1.9605,1.9621,1.9641,1.9614,1.964,1.9677,1.9697,1.9735,1.9769,1.9794,1.9798,1.9768,1.9764,1.9778,1.9788,1.9792,1.979,1.9589,1.976,1.9758,1.9757,1.9756,1.9756,1.9641,1.9677,1.9684,1.9716,1.9724,1.9739,1.9772,1.9766,1.9796,1.9824,1.9807,1.985,1.9859,1.989,1.9898,1.9931,1.9905,1.9926,1.9932,1.9938,1.9945,1.9786,1.9936,1.9935,1.9935,1.9934,1.9934,0,1.98,1.9802,1.9832,1.9854,1.9879,1.9845,1.9861,1.9884,1.9922,1.9933,1.9958,1.9999,2.0031,2.0027,2.0056,2.0083,2.007,2.0092,2.009,2.0091,1.9967,1.9951,2.0102,2.0102,2.0102,2.0102,2.0102,2.0102,1.9886,1.9945,1.9934,1.9996,1.9997,2.0038,2.0049,2.0063,2.0071,2.0119,2.0144,2.014,2.0145,2.0174,2.0201,2.0199,2.0212,2.0239,2.0232,2.0117,2.01,2.0084,2.0069,2.0242,2.0242,2.0353,2.0354,2.0355]}]]